Regional Weather Roundup
Issued by NWS Kansas City/Pleasant Hill, MO

Home | Current Version | Previous Version | Text Only | Print | Product List | Glossary On
Versions: 1 2 3 4 5 6 7 8 9 10 11 12 13 14 15 16 17 18 19 20 21 22 23 24 25 26 27 28 29 30 31 32 33 34 35 36 37 38 39 40 41 42 43 44 45 46 47 48 49 50
357
ASUS43 KEAX 241510
RWREAX

WEATHER ROUNDUP FOR EASTERN KANSAS AND NORTHWEST MISSOURI
NATIONAL WEATHER SERVICE KANSAS CITY/PLEASANT HILL MO
1000 AM CDT SAT SEP 24 2016

KSZ040-057-103>105-MOZ028-029-037-043-241600-
...KANSAS CITY METROPOLITAN AREA...

CITY           SKY/WX    TMP DP  RH WIND       PRES   REMARKS
K.C. INTL      MOSUNNY   80  69  69 S13       30.04S
K.C. DOWNTOWN  SUNNY     82  70  66 S10       30.03S
LEES SUMMIT    SUNNY     79  69  71 S10       30.05F
OLATHE - IXD   PTSUNNY   78  70  76 S14       30.04S
OLATHE - OJC   PTSUNNY   77  70  79 S12       30.05R
LAWRENCE       CLOUDY    78  71  79 SE10      30.02S

$$

MOZ001>008-011>017-020>025-030>033-038>040-044>046-053-054-241600-
...NORTHERN AND CENTRAL MISSOURI...

CITY           SKY/WX    TMP DP  RH WIND       PRES   REMARKS
ST. JOSEPH     MOSUNNY   80  69  69 S10       30.02S
MOSBY          SUNNY     79  68  69 SE5       30.04F
WHITEMAN AFB   SUNNY     78  74  88 SW7       30.06S
CLINTON        MOSUNNY   77  72  83 S7        30.08S HAZE
SEDALIA        SUNNY     80  70  71 S9        30.09S
WARSAW         NOT AVBL
CHILLICOTHE      N/A     77  68  73 VRB6      30.07S
KIRKSVILLE     SUNNY     77  68  73 SE6       30.10F

$$

MOZ041-047>049-056>058-063>065-088>090-097-241600-
...EASTERN AND SOUTHERN MISSOURI...

CITY           SKY/WX    TMP DP  RH WIND       PRES   REMARKS
ST. LOUIS INTL MOSUNNY   84  67  56 VRB3      30.12S
SPIRIT OF STL  SUNNY     79  71  76 CALM      30.10S
COLUMBIA       SUNNY     77  69  76 SE9       30.11R
JEFFERSON CITY SUNNY     77  69  76 VRB5      30.10S
ROLLA          SUNNY     79  68  69 S8        30.12S
OSAGE BEACH    MOSUNNY   77  70  79 SE6       30.11S
SPRINGFIELD    SUNNY     80  69  69 S9        30.10S
BRANSON        MOSUNNY   81  70  69 SE6       30.12S
JOPLIN         SUNNY     80  71  74 S10       30.07R
WEST PLAINS    SUNNY     80  68  66 S6        30.15S

$$

IAZ060-094-KSZ022-034>040-054-083-096-NEZ052-066-093-241600-
...KANSAS...SOUTHEAST NEBRASKA AND IOWA...

CITY           SKY/WX    TMP DP  RH WIND       PRES   REMARKS
TOPEKA         CLOUDY    77  70  79 S12G21    29.99F
MANHATTAN      LGT RAIN  79  71  76 S12G21    29.94F
EMPORIA        CLOUDY    76  70  82 S17G24    30.00S
CHANUTE        PTSUNNY   78  71  79 S14       30.03S
WICHITA        CLOUDY    78  71  79 S18G24    29.96S
OMAHA          CLOUDY    77  67  71 SE14      29.96S
LINCOLN        PTSUNNY   80  69  69 S15       29.93F
FALLS CITY     CLOUDY    78  69  73 S9G21     29.98F
LAMONI         MOSUNNY   75  68  78 SE9       30.06S
DES MOINES     MOSUNNY   76  67  73 SE10      30.06R

$$





USA.gov is the U.S. government's official web portal to all federal, state and local government web resources and services.